GFSNGP_850_thetae_009.txt.gz
Theta_e
308 308 308 308 312 311 310 310 311 309 308 308 309 312 311 311 312 311 312 314 318 319 318 318 317 317 317 316 316 314 313 310 308 307 306 304 303 301 300 299 298 297 297 297
306 306 306 307 307 308 309 309 308 310 311 309 309 313 310 309 310 311 311 312 312 314 317 315 317 317 317 316 315 314 312 310 309 307 306 304 302 301 300 299 298 297 297 297
306 305 305 307 305 305 306 307 308 311 312 311 311 310 308 306 308 311 311 312 313 311 311 316 316 317 316 316 315 313 312 310 309 307 306 304 302 301 299 298 298 297 297 297
307 307 308 306 305 307 308 308 311 313 312 310 308 308 307 307 310 309 310 312 312 312 311 310 314 315 315 315 314 313 311 310 309 307 305 303 301 300 299 298 297 297 297 296
304 305 305 305 306 307 308 310 311 304 307 310 309 308 307 308 309 310 311 312 311 310 311 311 310 314 313 314 314 312 311 310 308 306 304 302 301 300 299 298 297 297 297 295
304 306 306 305 304 305 305 308 307 305 308 308 308 308 307 309 309 310 311 311 311 309 311 311 311 312 312 312 313 312 310 309 308 305 303 302 301 299 298 298 297 297 296 296
302 302 303 303 305 305 306 305 304 305 307 307 308 308 308 309 309 311 309 310 309 308 312 314 311 312 311 312 313 312 310 309 306 304 302 301 300 298 298 297 297 296 296 296
299 300 302 305 304 305 305 305 305 305 304 306 307 308 308 309 310 309 309 311 308 305 309 310 310 311 311 312 311 311 309 307 305 303 301 300 299 298 298 297 297 297 296 296
301 303 302 303 303 304 304 304 303 303 304 304 304 304 307 308 310 309 309 311 307 303 305 307 308 310 311 311 310 309 307 305 303 301 300 299 298 298 298 297 297 297 296 296
303 303 303 303 303 303 303 302 302 303 303 303 303 304 303 304 310 310 309 311 307 301 302 306 308 309 310 310 308 306 304 303 301 300 299 298 298 298 297 297 297 297 296 296
303 302 302 302 303 303 302 302 302 302 302 303 302 304 304 306 309 310 309 310 308 305 301 304 307 307 308 307 305 304 302 300 299 298 298 298 298 298 297 297 297 296 296 297
303 302 302 302 302 302 302 302 302 302 302 303 303 304 305 305 307 310 309 309 308 306 308 305 305 305 305 304 302 301 300 299 298 298 298 298 298 297 297 297 296 296 297 297
303 303 302 302 302 301 301 302 302 302 303 303 303 303 304 306 307 309 310 308 310 306 303 307 305 303 302 301 300 299 299 298 298 298 298 298 297 297 297 296 295 297 296 296
302 302 301 302 302 303 303 302 301 302 302 301 301 301 302 303 306 308 307 308 309 310 301 303 302 301 301 302 304 301 299 298 298 298 298 297 297 297 296 295 295 296 296 296
302 301 300 301 301 302 301 301 301 301 301 300 301 301 302 302 303 305 307 309 309 311 301 301 301 300 304 305 299 298 298 298 298 298 297 297 297 296 295 296 296 296 296 295
301 301 300 300 301 301 300 300 300 299 299 298 298 300 301 302 303 304 305 307 308 310 301 300 301 300 300 301 299 298 298 298 298 297 297 297 295 295 295 295 296 296 295 295
300 300 299 299 300 300 300 299 299 298 296 296 296 298 301 302 302 303 305 307 306 308 305 305 302 299 301 299 301 298 298 297 297 297 295 294 294 296 296 296 295 294 294 294
300 300 298 299 300 299 299 298 298 296 295 296 296 299 301 301 301 301 304 305 310 307 306 304 300 299 300 301 299 297 297 297 296 294 294 295 295 295 295 294 294 293 293 293
298 298 298 299 298 298 297 297 296 295 295 295 297 298 298 298 299 301 303 304 306 304 299 299 298 301 303 299 298 298 296 294 294 294 295 295 295 294 293 293 293 293 292 292
297 297 298 298 297 296 295 295 295 296 295 296 297 298 299 300 301 303 302 302 303 302 298 299 300 303 299 298 297 296 294 294 295 295 294 294 293 292 292 292 292 292 292 292
296 298 298 296 294 295 295 295 295 295 295 297 297 298 299 301 301 300 300 302 299 299 299 300 303 300 297 297 295 294 295 295 294 294 293 292 292 292 292 292 292 291 291 292
295 297 296 295 294 295 295 295 294 294 295 295 297 299 300 299 299 299 300 303 299 300 301 301 298 297 297 296 294 294 295 294 294 293 292 292 291 291 292 292 291 291 291 291
297 296 294 294 294 294 294 294 294 295 297 298 299 299 299 299 299 300 299 299 300 300 298 297 297 296 295 294 295 295 294 293 292 292 291 291 291 291 291 291 291 291 291 291
295 294 294 294 295 294 293 293 294 294 296 297 297 298 299 300 300 299 299 299 297 297 297 296 295 295 295 295 294 294 293 293 292 291 290 290 290 290 290 291 290 290 291 291
293 293 294 294 294 294 294 294 295 295 296 296 296 296 297 298 298 296 296 296 296 295 294 294 295 295 295 294 294 293 293 292 292 291 291 290 290 290 290 290 291 290 290 291
294 294 295 294 295 295 295 295 294 294 295 295 295 295 296 296 296 296 295 293 293 293 294 294 294 294 294 293 293 293 292 292 291 291 291 291 291 290 290 290 290 290 291 291
295 295 295 295 295 294 294 294 294 293 294 294 294 294 293 293 293 293 293 293 293 292 292 293 293 293 293 293 293 293 292 292 291 291 291 291 291 290 290 290 290 290 290 290

GFSNGP_850_thetae_015.txt.gz
Theta_e
304 304 304 305 305 304 304 304 305 305 306 306 306 305 304 304 305 306 307 308 307 307 308 309 310 311 311 310 310 308 308 307 308 309 310 310 309 308 305 305 304 302 300 299
304 303 303 303 303 304 304 304 305 305 306 306 304 304 304 304 305 305 307 307 307 307 307 308 309 309 310 310 308 309 308 307 307 307 309 310 309 307 305 304 304 301 300 299
303 302 302 304 304 302 301 302 303 305 305 305 305 305 304 305 305 306 306 305 305 305 306 307 309 309 309 310 306 307 308 307 307 306 307 309 308 306 305 304 303 301 300 299
303 302 303 302 302 302 302 303 304 304 306 305 304 303 304 304 304 306 304 304 304 304 305 306 308 309 309 308 309 306 307 307 306 307 306 307 308 306 305 304 303 301 300 299
302 302 302 302 302 301 302 304 304 304 303 303 303 303 303 303 303 303 303 303 303 304 305 307 308 309 308 306 308 306 306 307 306 307 307 307 308 306 304 305 302 301 300 298
303 303 303 301 301 301 303 304 303 303 303 303 303 304 304 302 302 302 302 303 303 304 305 307 309 308 307 304 306 305 306 306 306 306 307 307 307 306 305 304 302 300 299 298
301 303 302 300 300 302 303 304 302 302 302 302 303 303 302 301 302 302 302 303 303 305 307 308 308 307 307 304 303 304 304 305 305 306 306 307 307 306 305 304 302 300 298 298
300 300 300 300 301 302 302 302 302 302 302 302 301 301 301 301 301 302 302 302 302 304 308 308 307 306 305 301 301 303 305 304 305 306 305 306 306 305 305 303 300 299 298 297
301 301 300 300 301 301 301 302 302 302 301 301 301 301 301 301 301 301 301 301 301 304 308 307 306 305 300 299 301 304 305 303 303 304 304 306 306 305 304 302 299 298 298 297
300 301 301 301 301 301 302 301 301 300 300 301 301 300 300 300 301 300 301 301 301 303 308 307 305 301 297 299 300 302 304 303 304 303 303 304 305 305 303 300 298 298 297 297
301 301 301 301 301 301 301 300 299 299 299 300 300 300 300 300 300 299 299 299 301 303 307 307 304 299 297 297 298 300 301 302 300 305 303 304 305 303 301 299 299 298 297 296
302 302 302 302 301 301 300 299 299 298 298 299 300 299 299 299 299 298 298 299 300 302 305 306 303 297 297 296 296 298 298 298 300 303 303 304 301 299 298 298 297 297 297 296
302 301 301 300 300 300 299 298 298 298 298 299 299 299 298 298 298 297 296 297 298 301 302 306 305 300 298 295 296 296 297 299 301 302 301 300 298 298 297 297 297 297 296 296
299 299 299 298 299 298 298 297 297 297 297 298 298 298 297 297 297 296 295 295 297 301 301 305 305 302 302 301 297 297 297 299 299 299 298 298 297 297 297 297 296 296 296 295
299 299 299 299 298 298 297 296 296 296 296 297 297 297 296 296 296 296 295 296 296 299 301 303 306 304 301 301 301 301 298 298 298 298 299 299 298 297 296 296 297 296 296 295
298 298 298 298 297 296 295 295 295 296 296 296 297 296 295 295 295 295 294 295 296 298 299 300 305 304 304 303 302 302 302 302 302 302 300 298 297 297 297 297 296 295 295 296
296 296 295 295 294 294 294 294 294 295 295 296 295 294 294 294 294 294 294 295 297 298 298 299 303 300 301 300 300 299 298 298 297 297 297 297 297 297 296 295 295 296 296 295
294 294 293 293 293 293 293 293 294 296 295 294 293 293 294 294 294 294 294 295 297 298 299 301 302 299 299 299 299 298 298 297 297 297 297 297 296 295 295 296 296 295 294 294
292 292 292 293 293 293 293 294 295 293 293 293 293 294 293 294 294 294 294 296 297 298 300 301 299 299 299 300 298 297 297 297 297 297 296 295 295 295 295 295 294 293 293 293
293 293 293 293 293 294 294 293 293 293 293 293 293 293 293 294 294 294 294 296 298 300 300 300 298 299 300 299 299 297 297 297 296 295 295 295 295 294 294 293 293 292 292 292
293 293 293 293 292 293 293 293 293 292 292 292 293 294 295 295 295 295 296 297 298 299 301 300 299 299 299 300 298 297 297 295 294 295 295 294 294 292 292 292 292 291 291 291
292 293 293 293 293 293 293 293 292 292 292 293 295 297 298 297 297 298 299 298 298 299 298 298 298 298 299 298 297 296 294 294 294 294 293 292 292 292 292 291 291 292 291 291
293 293 293 293 293 293 293 293 293 293 292 293 295 296 297 298 298 298 297 297 297 297 298 299 298 298 297 296 295 294 294 294 293 292 291 291 291 291 291 291 291 291 292 291
294 293 293 293 293 293 293 293 293 293 293 293 294 294 295 296 296 296 296 297 298 298 298 297 297 297 296 294 294 294 293 292 292 291 290 290 290 290 290 290 290 290 290 290
294 293 293 293 293 292 292 292 293 293 293 293 293 294 294 295 295 295 296 296 296 297 297 297 295 294 294 294 293 293 292 292 291 291 290 290 290 290 290 290 290 290 290 290
293 293 293 292 292 292 292 292 292 292 292 293 293 293 293 293 294 293 294 294 294 295 296 295 295 295 294 293 293 292 292 292 291 291 291 290 290 290 290 290 290 289 289 290
293 293 292 292 292 292 291 291 291 291 291 292 292 292 292 292 292 292 293 293 294 294 294 294 294 293 293 293 293 292 292 292 291 291 291 291 290 289 289 288 289 289 289 289

GFSNGP_850_thetae_021.txt.gz
Theta_e
306 306 306 305 305 305 305 305 305 305 305 305 305 305 305 305 305 305 305 304 304 304 304 304 304 305 306 307 307 308 309 310 310 310 307 308 309 309 310 310 309 308 307 307
305 305 304 304 305 305 305 305 305 304 304 304 304 304 305 305 305 304 304 305 304 303 304 304 304 305 306 307 307 308 309 308 309 309 307 307 307 308 309 309 308 307 306 306
305 304 304 305 306 305 304 304 304 304 304 304 305 305 305 304 304 304 305 304 304 304 304 304 305 305 305 305 306 308 309 309 309 307 307 306 306 307 308 308 308 307 306 305
306 305 306 306 305 305 304 304 304 304 304 305 305 304 304 304 304 304 304 304 304 304 304 304 304 304 305 304 304 307 308 308 308 306 306 306 306 306 307 308 307 306 305 304
306 305 305 305 304 304 304 304 304 304 306 304 304 304 304 303 303 303 303 303 302 302 302 302 303 303 303 304 304 307 308 307 307 305 304 304 305 306 306 307 307 306 305 304
306 307 305 304 304 303 303 305 304 304 304 304 303 306 307 303 302 302 302 302 302 302 302 302 302 303 303 303 304 306 307 306 305 303 303 301 305 305 306 307 306 305 304 303
307 308 305 304 303 303 304 305 304 303 303 304 305 304 303 302 302 301 301 301 301 302 301 302 302 302 302 303 305 306 305 304 304 301 300 300 304 305 305 306 306 305 304 303
304 305 304 303 303 303 304 303 304 303 303 303 303 303 303 302 301 301 300 301 301 301 301 301 301 301 302 303 305 304 303 303 302 300 299 300 303 305 305 305 305 304 303 302
304 305 303 302 302 302 303 303 304 303 303 303 303 302 300 300 301 300 300 300 301 301 301 301 301 301 301 302 304 302 302 302 300 300 302 302 304 305 305 305 305 304 303 302
304 303 302 301 301 303 304 303 303 302 301 301 301 301 301 301 300 300 300 300 300 300 300 300 300 300 300 300 303 302 302 301 299 302 306 304 303 304 304 305 304 303 302 301
303 302 302 302 302 302 302 302 301 301 301 300 300 300 300 299 300 299 299 299 300 300 300 300 300 300 299 299 302 302 301 300 299 304 304 302 303 303 304 304 303 302 301 301
305 302 302 303 302 301 301 301 300 300 300 299 299 300 299 298 298 298 299 299 299 299 299 299 299 299 299 298 302 302 298 298 299 301 303 303 302 302 302 303 303 301 301 301
302 302 303 302 301 301 300 299 299 298 298 297 297 297 297 297 297 296 297 297 297 297 298 297 297 298 298 298 301 300 298 297 299 299 301 302 302 301 302 302 301 300 300 301
302 302 301 300 299 298 298 297 296 296 296 295 295 295 295 296 296 296 296 296 296 295 295 295 296 297 297 301 300 298 298 298 298 299 300 301 302 301 300 299 299 299 299 298
301 300 299 298 297 296 295 295 295 295 294 294 295 295 295 296 296 295 296 295 294 294 294 295 295 295 297 300 299 298 298 297 297 298 299 300 300 299 298 298 297 297 297 296
298 297 297 296 295 295 294 294 295 295 295 295 295 295 295 295 295 294 294 294 294 294 294 295 295 295 297 299 299 298 298 297 297 299 300 300 300 300 299 298 297 297 297 297
296 296 295 295 295 295 295 295 294 294 294 294 294 293 293 293 293 294 294 295 295 295 294 294 295 297 298 299 299 299 297 297 297 297 299 299 298 298 298 298 298 297 297 296
295 295 295 294 294 293 294 293 293 293 293 293 293 293 293 293 293 293 293 294 294 294 295 295 297 298 299 299 298 299 298 298 297 297 297 297 297 297 297 297 296 296 296 295
295 294 294 293 293 293 293 293 293 293 293 293 293 292 293 294 296 296 294 294 294 295 296 297 298 299 298 297 297 297 299 299 299 299 300 300 300 300 297 296 297 297 296 296
294 294 294 293 293 293 293 293 292 293 293 293 292 293 294 296 297 297 296 296 296 297 298 298 298 297 297 297 296 297 297 297 298 299 298 297 296 296 296 296 296 296 296 295
294 294 293 293 293 293 293 293 292 292 293 293 293 293 294 296 297 297 297 297 298 298 298 297 297 297 297 297 297 297 297 297 297 297 296 296 296 295 295 296 295 295 295 294
293 293 293 293 292 293 292 293 292 292 293 293 293 294 294 295 296 296 296 296 296 297 297 297 297 297 297 297 296 296 295 294 295 295 295 295 295 295 294 294 294 293 293 293
293 293 293 292 293 292 292 291 291 292 292 292 293 293 294 294 295 296 296 296 297 297 297 296 296 297 296 296 295 294 294 294 294 294 294 294 294 293 293 293 293 293 292 292
293 293 292 292 293 292 291 291 291 291 291 291 292 292 292 293 295 296 296 295 296 296 296 295 295 295 294 294 294 294 293 293 294 293 293 292 292 292 292 291 291 291 291 291
293 293 292 292 292 292 292 292 291 291 291 291 291 291 292 292 292 293 294 294 295 294 294 294 294 294 294 293 293 293 292 292 292 292 292 292 291 290 290 290 291 290 290 290
293 293 293 292 293 292 292 292 292 291 291 290 291 290 290 291 292 292 293 293 294 294 294 294 294 293 293 293 292 292 291 291 292 292 291 291 291 291 290 290 290 290 290 290
293 293 293 292 292 293 292 292 292 291 291 290 290 290 290 290 290 291 291 291 292 292 292 293 293 293 293 293 292 292 292 291 292 291 291 291 290 290 289 289 289 289 289 290

GFSNGP_850_thetae_024.txt.gz
Theta_e
306 306 306 305 305 305 305 305 304 305 305 305 304 303 304 304 305 305 304 304 305 305 305 304 304 304 304 305 305 305 305 305 307 308 308 307 308 309 308 308 310 313 312 310
306 306 306 305 305 305 305 305 305 304 304 304 304 304 304 305 304 304 304 305 305 304 304 304 304 304 304 303 304 304 304 304 306 308 308 307 306 307 308 307 309 311 311 309
306 305 305 305 306 305 305 304 304 303 304 304 305 305 305 304 304 303 304 304 303 303 303 303 302 302 303 303 303 304 303 304 304 307 308 307 306 305 307 307 308 309 310 308
306 305 306 307 305 305 304 304 304 304 305 306 305 304 304 304 304 304 303 303 302 302 302 302 302 302 302 302 303 303 303 303 304 307 307 306 305 304 304 306 307 308 309 308
305 306 305 305 305 304 304 303 304 304 305 304 304 304 303 303 304 304 303 303 302 301 301 301 301 302 302 302 302 303 302 303 306 306 306 304 305 303 303 306 306 307 309 307
304 304 305 305 305 304 303 303 304 303 303 304 304 304 303 303 303 303 303 303 301 301 301 301 301 302 301 302 301 302 302 304 305 303 303 303 303 302 301 304 306 307 308 307
306 305 306 305 303 303 302 302 303 302 303 304 304 304 303 303 303 303 302 301 301 300 300 300 301 301 301 301 302 301 301 303 303 303 302 302 302 300 300 303 306 306 307 306
304 304 304 304 303 302 302 302 302 304 304 303 303 302 302 302 302 301 301 300 300 301 300 300 300 301 301 301 300 300 300 301 301 301 301 302 300 300 300 302 305 306 307 305
303 304 303 303 302 302 302 303 303 303 302 302 302 301 301 301 301 301 300 300 300 300 300 299 300 300 300 300 300 300 300 300 300 301 301 301 299 301 300 301 304 306 306 304
302 302 302 302 302 302 302 303 302 301 301 301 301 300 300 300 300 299 299 300 300 299 298 299 300 300 300 299 299 299 299 299 299 301 301 300 303 305 302 303 304 305 305 303
301 302 302 302 302 303 302 301 301 301 300 299 299 299 298 298 297 297 297 297 297 297 298 297 298 298 298 298 298 298 298 298 300 300 299 300 303 304 304 304 305 305 304 303
302 302 302 302 302 301 300 300 299 299 298 297 296 296 296 296 296 295 295 296 296 296 296 297 296 296 295 295 296 298 298 299 300 299 298 299 302 303 304 303 304 305 303 302
301 302 302 302 301 300 299 298 297 295 295 295 295 295 295 295 295 296 296 296 296 296 296 296 297 295 294 295 296 296 297 299 299 298 298 299 301 302 303 303 304 303 302 301
301 302 301 300 299 297 296 295 295 295 295 295 295 295 295 295 295 295 295 295 295 295 295 295 294 294 294 294 295 296 299 299 297 298 298 298 301 302 301 303 302 301 301 301
302 300 299 297 296 295 295 295 294 294 295 294 294 294 294 294 294 294 293 293 294 294 294 295 295 295 295 295 295 297 299 298 297 297 297 299 301 300 300 300 300 300 300 299
299 298 297 296 295 295 294 294 294 294 293 293 293 293 293 293 293 293 293 294 294 294 294 295 295 295 295 295 296 297 298 297 297 298 299 300 300 299 299 299 299 299 298 297
297 297 296 295 294 294 294 293 293 293 293 293 293 293 293 293 294 294 296 295 294 294 294 294 295 295 296 298 298 298 297 297 298 299 299 299 299 299 299 298 297 297 296 295
296 296 295 294 294 294 294 293 293 292 293 293 293 293 293 293 293 295 296 296 296 296 296 296 296 298 298 299 298 297 297 297 297 298 298 298 298 298 298 298 297 297 297 296
296 295 294 294 294 293 293 293 292 292 292 293 292 293 293 294 295 296 296 297 297 298 298 297 297 297 297 297 297 297 297 297 297 298 298 298 298 297 297 297 297 296 296 296
295 294 294 293 293 293 293 292 292 292 292 292 293 293 293 294 296 296 296 296 296 296 297 296 296 296 296 296 297 297 297 297 298 298 298 298 299 299 298 297 297 296 296 296
295 294 294 293 293 293 292 293 292 291 292 292 292 293 293 294 296 295 295 296 296 297 296 296 296 296 296 296 297 296 297 297 296 296 296 296 296 296 296 296 296 295 295 295
294 294 293 293 293 292 292 292 292 291 291 291 292 292 293 293 295 295 295 295 296 296 296 296 296 296 296 295 295 295 294 294 295 296 296 295 295 295 295 295 295 294 294 294
294 293 293 293 292 292 291 292 292 291 291 291 291 291 292 292 293 294 294 295 295 295 295 295 295 295 294 294 294 294 294 294 294 294 294 294 294 294 294 294 293 293 293 292
293 293 293 293 292 292 291 291 292 292 291 290 291 290 291 292 292 293 294 294 294 294 295 295 294 294 294 294 293 293 293 293 294 294 294 293 293 293 293 293 293 292 292 292
293 293 293 292 292 292 292 292 292 292 291 291 290 290 290 291 291 292 292 293 294 294 294 294 294 293 293 293 292 292 292 292 292 292 292 291 291 291 291 291 291 291 290 290
293 293 293 292 292 292 292 291 291 291 291 291 290 290 290 289 290 290 291 291 292 292 293 293 293 293 293 293 293 292 292 292 292 291 291 291 291 290 290 290 290 290 290 290
293 293 292 292 292 292 292 291 291 291 291 291 290 290 290 290 289 289 288 290 291 291 291 292 293 292 292 292 292 292 292 292 292 292 291 290 290 289 289 289 289 289 289 290

GFSNGP_850_thetae_027.txt.gz
Theta_e
304 305 305 305 305 304 304 303 302 303 303 303 302 300 303 304 304 303 303 303 303 303 303 303 302 302 302 302 301 302 302 302 302 303 303 303 304 306 307 306 306 308 309 308
304 304 304 305 304 304 303 303 303 303 303 301 303 305 304 304 303 303 303 303 303 303 303 302 302 301 300 301 301 301 302 302 302 303 303 302 304 307 306 306 305 307 308 307
299 303 304 302 304 304 303 303 302 302 302 304 304 304 303 303 303 303 303 303 304 303 302 302 301 300 300 300 301 302 301 301 303 302 301 303 306 305 304 305 305 305 306 308
299 301 300 302 303 303 303 303 302 302 303 304 303 302 302 303 303 302 303 303 303 302 302 302 301 300 300 300 300 301 301 301 300 301 302 305 304 303 302 303 303 303 304 307
298 298 301 303 304 303 303 302 303 302 302 302 301 301 302 302 302 303 302 302 302 302 302 301 300 300 300 300 300 300 301 300 301 301 301 302 302 301 302 302 303 302 303 306
301 296 297 301 303 303 302 301 302 301 301 302 303 303 303 303 302 302 302 301 302 301 301 300 300 299 300 300 299 300 300 301 300 299 300 301 300 300 301 302 301 301 302 306
302 297 300 302 303 302 299 299 301 301 303 303 302 302 301 301 301 301 301 301 300 300 300 299 299 299 300 299 299 299 300 300 299 299 300 299 300 300 301 301 300 300 301 306
299 297 301 302 301 301 300 301 301 302 302 301 301 300 300 300 300 299 299 299 299 298 298 299 298 299 298 298 299 300 299 299 299 299 298 299 299 300 300 300 299 300 301 305
299 299 301 302 302 301 301 302 302 300 300 300 300 299 299 298 297 296 296 296 296 296 296 296 297 297 297 298 298 298 298 298 298 297 298 298 299 300 299 301 300 301 302 304
299 300 301 301 301 301 302 302 300 299 299 299 298 297 295 295 295 295 295 295 295 295 295 295 296 296 296 296 297 296 296 296 295 296 298 299 300 300 299 302 303 302 303 304
298 300 301 301 301 302 301 298 298 298 296 295 295 294 295 295 295 295 295 295 295 295 296 296 295 295 295 296 296 296 295 295 296 297 298 299 299 299 299 304 303 303 304 303
300 300 300 301 302 301 298 297 296 295 295 295 294 295 294 294 294 294 294 295 294 294 294 294 295 295 295 296 296 294 294 294 296 296 298 299 298 298 300 304 304 303 304 301
300 301 301 301 300 298 297 296 295 295 294 294 294 293 293 293 293 294 293 294 294 294 294 294 293 294 295 294 294 294 294 295 295 297 299 298 298 298 299 304 303 303 303 301
301 300 301 301 297 297 296 295 294 294 293 293 293 293 293 293 293 293 294 294 294 295 294 294 293 294 294 295 295 295 295 295 296 298 298 297 298 298 301 303 302 304 301 301
301 301 299 298 297 296 295 294 294 293 293 293 293 293 293 293 293 293 294 295 296 295 294 294 294 294 295 295 295 295 295 296 297 297 296 296 298 300 302 301 302 302 300 301
301 300 298 297 296 295 294 294 293 293 293 292 292 292 292 292 293 294 295 295 296 296 295 294 295 295 296 296 296 296 297 297 297 297 297 297 299 301 301 301 302 302 301 301
299 298 297 296 295 294 294 293 293 292 292 292 292 292 292 293 294 295 296 295 295 297 297 296 296 296 297 298 297 296 297 297 298 299 299 299 299 299 299 300 300 300 300 300
299 298 296 295 294 294 293 293 292 292 292 291 291 292 292 293 294 295 296 295 295 296 296 296 296 296 297 297 297 297 297 297 298 298 298 298 298 299 299 299 299 299 298 298
299 297 296 295 294 293 293 292 292 291 291 291 291 292 293 294 295 295 295 295 295 295 296 296 296 296 296 297 297 296 297 296 297 297 298 298 298 298 298 299 297 296 296 296
297 296 295 294 293 293 292 292 291 291 291 291 291 291 292 293 294 295 295 295 295 295 296 296 296 296 295 296 297 297 297 297 298 298 298 298 298 298 298 298 298 297 297 297
296 296 295 293 293 292 292 291 291 290 291 291 291 291 291 292 294 294 295 295 295 295 295 295 295 295 295 295 296 296 296 296 296 297 297 297 297 297 296 296 296 297 296 296
296 295 294 293 293 292 292 291 291 291 291 291 290 291 291 292 292 293 294 294 295 295 295 295 295 294 294 294 294 294 295 295 295 295 296 296 296 296 296 296 296 295 295 295
296 295 293 293 293 292 292 291 291 291 291 291 291 290 290 291 291 292 292 293 294 294 294 294 294 293 293 293 293 294 294 294 294 295 295 295 295 295 295 295 294 294 294 294
295 294 293 293 292 292 292 291 291 291 291 291 291 290 290 289 290 291 291 292 293 293 294 294 293 293 293 292 292 292 292 292 293 293 293 293 293 293 293 293 293 293 292 293
295 293 293 293 292 292 292 291 291 291 291 291 291 290 290 289 289 289 290 291 291 292 293 294 293 293 293 292 292 292 292 292 291 291 292 292 292 292 292 292 292 291 291 291
294 293 293 293 292 292 291 291 291 291 291 291 291 290 290 289 289 289 288 289 290 291 291 292 292 292 292 292 292 292 292 292 291 291 291 291 290 290 290 290 290 290 290 290
294 293 293 292 292 292 291 291 291 291 291 291 291 290 290 289 289 289 288 288 287 288 290 290 291 291 291 291 292 292 292 291 291 291 291 290 290 289 289 289 289 290 290 289

GFSNGP_850_thetae_030.txt.gz
Theta_e
302 303 304 304 304 304 303 303 302 303 303 303 303 299 302 304 303 303 302 302 302 302 303 302 302 302 302 301 301 299 299 299 300 301 300 302 302 301 301 305 306 306 304 304
302 303 303 304 304 304 303 303 303 303 303 302 302 303 304 303 302 301 301 302 302 302 302 301 301 301 301 301 301 300 299 299 299 300 300 301 300 302 304 305 303 302 302 302
299 301 301 301 302 303 303 302 302 301 302 301 302 302 301 301 301 300 301 302 302 302 302 301 301 301 302 301 300 300 299 299 300 299 300 300 301 301 300 301 301 300 301 302
298 299 298 301 302 302 302 302 302 302 302 302 302 301 301 302 302 302 302 301 301 301 301 301 301 301 301 301 299 298 298 299 299 299 299 300 300 298 300 301 300 299 300 302
297 297 300 301 302 303 302 302 301 301 301 301 301 302 302 301 301 300 300 300 300 300 300 300 300 300 300 300 298 299 299 299 299 299 299 300 299 298 300 300 299 299 300 301
299 296 297 300 302 302 301 300 301 300 300 301 301 300 300 299 299 299 299 298 298 298 297 298 297 298 298 298 298 298 298 298 298 298 299 299 299 299 299 298 298 299 300 301
300 295 299 300 301 302 300 299 300 300 301 300 299 299 298 298 298 297 296 295 295 295 295 295 295 296 296 296 297 297 298 297 298 299 299 299 298 298 297 297 298 300 300 300
298 297 300 301 301 300 299 300 301 301 299 298 298 298 298 296 295 294 294 294 294 294 294 294 295 295 295 295 296 296 296 297 298 296 297 297 296 295 295 298 300 300 300 300
299 299 301 301 301 301 300 301 301 299 298 297 296 295 295 294 294 294 294 294 294 294 294 294 294 295 295 295 295 295 296 296 295 297 296 296 295 297 297 299 299 299 301 301
299 299 300 301 301 301 301 301 299 297 296 295 295 294 294 294 294 293 293 293 293 294 294 294 294 294 294 294 295 295 295 295 296 295 295 295 296 297 298 299 298 299 302 301
298 299 300 301 301 301 301 299 297 296 295 294 294 293 293 293 293 293 293 293 294 294 294 294 294 294 294 294 294 295 295 295 295 294 294 294 295 296 299 299 298 299 303 301
300 300 300 300 300 301 299 297 296 295 294 294 293 293 293 293 293 293 293 294 294 294 294 295 295 294 294 293 294 294 295 294 294 294 294 295 295 298 298 297 298 303 303 301
300 300 300 300 300 299 297 296 295 294 293 293 293 293 292 293 292 293 293 294 294 294 295 296 296 294 294 294 294 295 295 295 294 295 295 295 297 298 298 298 302 303 303 301
301 300 300 300 299 298 296 296 294 293 293 293 292 292 292 292 292 293 294 294 295 295 295 296 296 295 295 295 294 294 294 294 295 295 295 297 298 298 297 298 300 304 302 301
301 301 300 299 298 298 296 294 294 293 293 292 292 292 291 292 293 294 294 295 295 296 296 296 296 295 296 296 296 296 295 295 295 296 296 296 296 296 297 299 302 301 301 301
301 301 300 299 298 297 295 294 293 293 292 292 291 291 291 292 293 294 294 295 295 295 296 296 296 296 296 297 297 296 296 296 296 297 297 296 296 298 300 302 300 300 301 303
300 300 299 298 298 296 294 293 293 292 292 291 291 291 291 293 292 293 294 295 295 296 295 295 295 296 296 296 296 296 296 297 298 299 299 299 300 301 301 300 300 301 303 303
300 301 300 298 296 295 294 293 292 292 291 291 291 291 291 292 292 293 294 294 295 295 295 295 295 296 296 296 296 297 297 297 297 298 298 298 298 298 299 300 300 301 301 301
300 300 298 296 295 294 293 293 292 291 290 290 291 291 291 291 292 293 294 294 295 294 295 295 295 295 295 296 296 297 297 297 297 297 297 298 298 298 299 299 300 300 300 299
299 299 297 296 295 293 293 292 291 291 291 291 291 290 290 291 292 292 292 293 294 295 294 294 294 294 295 296 296 296 297 297 297 297 297 297 297 297 298 299 298 297 296 296
299 297 296 296 294 293 292 292 291 291 291 291 291 290 290 290 291 291 292 292 293 294 294 293 293 293 294 295 295 295 296 297 297 297 297 297 297 297 297 297 297 297 297 297
298 296 296 295 293 293 292 291 291 290 291 291 291 290 290 289 290 290 291 292 292 293 294 294 293 293 293 293 294 294 295 295 296 296 296 297 297 297 296 297 296 296 296 296
297 296 296 294 293 293 292 291 291 291 291 291 291 291 290 289 289 289 289 291 292 292 294 293 294 293 292 292 292 293 293 294 295 295 295 295 296 296 296 296 296 296 296 296
296 296 296 294 293 293 292 292 291 291 291 291 291 291 290 289 289 289 288 289 291 291 292 293 293 293 292 292 292 292 292 292 293 293 294 294 294 294 294 294 294 294 294 294
296 296 295 293 293 293 292 291 291 291 291 291 291 290 290 289 289 289 288 288 288 290 291 292 292 292 292 292 292 292 291 291 291 291 292 292 292 292 292 292 292 292 292 292
296 296 295 293 293 292 292 291 291 290 290 291 291 290 290 289 289 288 288 288 288 287 289 290 290 291 291 291 292 292 292 291 291 290 290 290 291 291 291 291 291 291 291 290
296 295 294 293 293 292 292 291 291 291 291 291 291 291 290 290 289 289 288 288 288 287 287 287 288 289 290 291 291 291 291 291 291 291 290 289 289 290 290 290 290 290 289 290

GFSNGP_850_thetae_033.txt.gz
Theta_e
301 300 301 302 303 303 302 301 302 302 301 302 302 302 302 301 302 301 300 300 301 300 301 301 301 300 301 300 301 300 301 300 300 300 299 299 299 298 300 300 301 305 304 302
301 302 302 302 302 302 303 302 302 302 302 303 303 302 302 302 300 300 301 301 301 300 299 299 299 300 300 300 301 300 299 301 300 300 299 297 299 299 299 299 301 299 299 300
298 299 300 300 301 302 302 301 302 302 302 301 300 301 301 300 300 301 301 300 299 298 298 299 299 299 299 299 299 299 299 299 299 299 298 298 299 299 298 300 300 299 300 301
297 298 299 302 300 301 302 301 301 301 301 301 301 300 300 301 301 300 299 298 298 297 297 297 297 297 296 297 297 297 298 298 299 298 298 298 298 298 298 300 299 299 299 299
296 297 300 301 301 300 301 301 301 301 300 300 300 301 300 300 298 297 297 297 296 295 295 294 294 294 295 295 295 295 296 297 297 297 298 298 298 298 299 299 299 298 298 297
298 295 297 300 301 302 300 300 300 300 300 299 300 298 299 297 297 296 295 294 294 294 294 294 294 294 294 294 294 294 295 295 296 296 297 297 297 298 299 298 298 297 296 295
299 294 299 299 300 301 300 299 300 300 301 300 298 298 297 296 295 294 294 294 294 293 293 293 293 293 293 294 294 294 294 295 295 296 296 296 298 297 296 297 296 295 295 297
298 296 301 301 300 300 300 300 300 301 300 298 297 296 295 294 294 293 293 293 293 293 293 293 294 294 294 294 294 294 294 295 295 295 295 296 296 296 296 295 295 297 297 299
299 300 300 301 301 301 300 300 301 299 298 296 295 295 294 293 293 293 293 293 293 293 294 294 294 294 295 295 293 294 294 294 294 295 295 295 296 295 295 295 296 297 299 299
301 299 299 300 302 301 300 301 300 298 297 296 294 294 293 293 293 292 293 293 293 294 294 294 294 295 295 295 294 293 294 294 293 294 295 295 294 294 293 295 295 297 298 298
298 299 300 300 300 300 300 301 300 298 297 295 294 293 293 292 292 292 292 293 293 294 294 295 295 295 295 296 294 294 293 293 293 294 294 293 293 293 294 295 296 299 298 298
301 301 300 300 300 300 300 300 298 297 295 294 293 293 292 292 292 292 293 293 294 295 295 295 295 295 296 295 295 294 293 294 294 294 294 294 294 294 295 297 298 298 297 299
301 301 300 300 300 300 300 298 297 295 294 293 292 292 292 292 292 293 292 293 293 294 295 295 295 295 296 296 295 295 295 293 295 294 294 294 295 295 296 297 297 298 302 303
301 300 299 300 300 300 299 298 296 294 293 292 292 291 291 291 291 292 293 294 294 294 294 294 295 295 296 295 296 296 296 295 296 295 295 295 295 296 297 297 297 301 303 302
302 301 301 300 300 299 298 297 295 294 293 292 292 291 291 291 291 292 292 293 294 296 295 294 294 295 295 295 295 296 295 296 295 296 296 297 296 296 296 296 299 302 301 301
301 301 300 300 299 298 297 295 294 293 292 292 291 291 290 290 290 291 292 293 293 294 294 294 294 294 295 295 296 296 297 297 297 298 298 297 297 296 296 299 301 300 300 303
300 300 299 299 299 298 297 295 293 293 292 291 291 290 290 291 290 291 292 293 293 294 294 294 294 294 295 295 296 296 297 297 298 298 299 300 301 301 300 300 300 301 303 303
301 301 300 300 300 298 296 294 293 292 292 291 290 290 290 290 290 291 292 292 293 294 294 294 294 294 295 295 296 296 297 297 297 297 298 298 299 299 300 301 302 302 302 302
300 300 300 300 299 297 295 294 293 292 291 290 290 291 290 289 290 291 291 292 292 293 294 294 293 293 294 295 295 296 297 297 297 297 297 297 298 299 299 300 301 301 300 301
300 299 299 299 297 295 295 294 292 291 291 290 291 291 290 289 289 290 291 291 291 292 294 294 293 293 293 294 295 295 296 296 296 297 297 298 298 299 299 299 299 298 299 299
300 299 299 298 296 295 294 293 291 291 291 290 291 291 291 290 289 289 288 289 291 292 294 293 293 292 292 293 294 295 295 296 296 296 297 297 297 297 297 296 296 296 296 296
300 299 298 296 296 295 293 292 292 291 291 290 291 291 291 290 289 289 288 288 290 292 292 294 293 293 292 292 293 294 295 295 296 296 296 296 296 297 297 297 297 297 296 297
299 299 297 296 295 294 293 292 292 291 291 290 290 291 291 290 289 289 288 288 288 290 291 292 293 293 292 292 292 292 293 293 294 295 295 295 296 296 296 296 296 296 297 296
299 298 296 296 295 294 293 292 292 291 291 290 290 291 290 290 289 289 288 288 288 288 290 291 292 292 292 292 292 291 291 292 293 293 294 294 294 294 294 294 295 295 295 295
299 298 296 296 295 294 293 292 292 291 290 290 290 291 290 290 289 289 288 288 288 288 288 288 290 291 291 292 292 291 291 290 290 291 292 292 293 293 293 293 293 293 294 294
300 298 297 296 295 294 293 292 292 291 290 290 291 291 291 290 290 289 288 288 288 288 288 287 287 289 291 291 291 291 291 291 290 290 290 290 291 291 291 291 291 291 292 292
299 297 296 295 295 293 293 292 292 291 290 290 291 291 291 291 290 289 288 288 288 288 287 287 287 287 289 290 291 291 291 291 291 290 289 289 290 290 290 290 290 290 290 290

GFSNGP_850_thetae_036.txt.gz
Theta_e
299 299 299 299 300 301 301 300 301 302 300 301 300 299 302 301 301 300 300 300 300 299 298 297 297 297 297 297 297 297 298 298 299 299 299 298 299 299 299 298 298 299 298 301
300 301 301 302 302 301 302 302 301 302 302 302 302 302 301 301 300 300 300 300 299 297 296 296 296 296 296 296 295 296 296 296 296 297 298 298 298 298 298 297 298 299 298 300
297 298 299 300 300 301 301 301 301 301 302 300 300 300 300 300 301 300 299 298 296 296 296 295 294 294 294 294 294 294 294 294 295 295 296 297 297 298 297 297 298 298 298 299
297 297 299 303 300 300 301 301 301 301 300 300 300 300 300 301 300 299 297 296 295 295 294 294 294 293 293 293 293 293 293 293 294 294 295 295 296 297 297 297 297 298 298 299
296 296 299 302 300 300 300 302 301 301 300 300 300 300 300 299 298 296 295 294 293 293 293 293 293 293 293 293 293 293 293 294 294 294 294 295 295 296 296 296 297 297 298 298
297 294 298 302 300 301 300 300 299 300 299 299 300 298 299 298 295 294 294 293 293 293 293 293 293 294 294 294 294 294 294 294 294 294 294 294 295 296 296 296 297 297 297 296
298 294 298 298 300 301 300 303 299 300 300 301 298 299 298 295 294 293 293 293 293 293 293 293 294 294 295 295 295 295 295 295 294 295 293 295 294 295 295 296 295 296 296 296
297 296 301 300 299 300 300 300 300 300 301 300 298 297 295 294 293 293 293 294 293 293 293 294 295 295 295 295 295 295 295 295 293 294 294 294 294 295 295 295 295 295 295 294
298 299 300 301 302 302 300 300 300 301 300 298 297 296 294 293 293 292 293 292 293 293 293 294 295 294 294 295 296 296 296 295 294 293 294 293 293 294 295 295 294 293 294 295
298 298 300 301 301 302 301 300 300 300 299 297 296 294 293 293 292 292 293 292 293 293 293 294 294 294 294 295 295 295 295 295 295 293 293 294 294 293 293 293 293 294 294 295
297 300 301 301 301 301 300 300 300 299 298 297 294 294 293 292 292 292 292 292 293 293 293 294 294 294 294 295 295 295 295 295 295 293 294 294 294 293 293 293 294 294 296 297
303 305 302 301 301 301 300 300 300 299 298 296 294 293 292 291 291 291 292 292 292 293 293 294 294 294 294 294 295 295 295 296 295 295 294 294 294 294 294 294 295 296 298 298
303 303 302 301 300 300 300 300 299 298 297 294 293 292 291 291 291 291 291 292 292 293 293 293 294 294 295 294 295 295 295 295 296 296 296 296 296 295 295 296 297 297 297 300
303 302 300 301 301 300 300 299 298 297 295 293 292 292 291 290 291 290 290 292 292 292 293 293 294 294 294 294 295 296 296 297 297 297 297 297 296 296 295 296 296 298 303 302
302 303 302 301 300 300 299 299 298 297 294 293 292 291 290 291 291 290 290 292 292 292 293 294 295 293 294 294 295 296 296 297 297 297 298 297 297 297 297 296 297 300 300 303
303 303 302 300 300 299 298 298 298 296 293 292 292 291 291 290 290 290 292 292 291 292 292 293 293 293 293 294 294 296 296 297 296 297 298 299 299 296 297 299 300 300 302 303
301 300 300 300 299 299 299 298 297 294 293 292 291 290 290 290 289 290 291 292 291 291 292 293 294 293 293 294 294 295 296 296 296 297 298 300 300 300 300 300 300 301 302 303
301 301 300 300 300 299 298 298 295 293 293 292 291 290 291 290 289 289 289 290 291 291 292 293 293 293 293 293 294 295 296 296 297 296 297 298 299 299 300 300 301 301 301 301
300 300 300 299 299 299 298 296 294 293 292 291 290 291 291 290 290 289 289 288 289 290 293 293 293 293 292 293 294 294 295 296 297 297 297 298 299 299 300 300 300 301 301 300
300 300 299 299 299 298 297 295 294 293 291 291 290 291 291 291 290 289 289 288 288 290 292 293 294 293 292 292 294 294 294 296 296 296 297 297 297 298 298 300 300 299 299 298
299 299 299 299 298 297 295 294 294 292 291 291 290 290 291 291 290 289 289 288 288 289 291 292 293 293 292 292 293 293 294 295 295 296 296 296 297 297 297 298 298 297 297 297
299 299 299 298 298 296 295 294 293 292 291 290 290 290 291 291 290 289 289 288 288 288 289 291 292 292 292 292 291 292 293 294 295 295 295 296 296 296 296 296 297 297 297 298
299 299 298 298 297 296 295 294 293 292 291 291 290 290 290 290 290 289 289 288 288 288 288 289 291 292 292 292 291 291 292 293 293 294 294 295 295 296 296 296 297 297 297 297
298 298 298 298 296 295 295 294 293 292 291 290 290 290 290 290 290 289 289 289 288 288 287 287 288 290 292 292 291 291 291 291 292 292 293 294 294 294 295 295 295 295 295 295
299 298 298 297 296 296 295 293 293 292 291 290 290 290 290 290 290 290 290 289 288 288 287 287 287 289 291 291 291 291 291 291 291 291 291 292 292 293 293 293 294 294 295 295
298 299 299 298 297 296 295 293 293 292 291 290 290 290 290 290 291 290 290 288 288 288 288 287 287 287 289 290 290 290 290 290 290 290 290 290 290 291 291 291 292 292 292 293
299 298 298 297 296 295 295 294 292 292 291 290 290 290 290 291 291 290 289 288 288 288 288 287 287 287 287 289 290 290 290 290 290 289 289 289 290 290 290 290 290 290 291 291

GFSNGP_850_thetae_042.txt.gz
Theta_e
307 306 304 305 306 307 307 309 310 312 312 311 310 310 308 306 304 303 303 302 302 301 299 297 297 296 296 297 297 296 296 296 296 296 296 296 295 296 296 296 296 297 297 298
307 305 305 306 307 307 307 307 308 308 308 309 308 306 305 304 304 303 302 302 301 299 297 296 296 296 296 296 296 296 296 296 296 296 296 295 295 295 295 295 295 295 296 297
310 304 304 308 309 308 308 307 307 308 311 308 307 306 305 304 303 303 302 300 299 297 296 296 296 296 296 296 296 295 295 296 296 296 296 296 296 295 295 295 296 296 296 297
309 306 314 310 307 305 306 307 307 307 307 308 307 305 304 303 302 302 301 299 297 296 295 295 295 295 295 295 295 295 295 296 295 295 295 295 296 296 295 295 295 295 296 296
309 309 310 311 306 306 306 308 308 308 307 307 305 303 304 302 301 300 299 297 296 295 295 295 295 295 294 294 294 294 294 296 295 295 295 296 296 296 295 295 294 295 295 296
305 309 314 311 304 303 303 309 307 306 306 306 304 306 307 301 300 299 297 296 295 294 294 294 295 294 294 294 294 295 295 294 294 294 295 295 295 296 295 294 294 294 295 295
309 309 309 307 303 302 308 313 306 304 304 304 305 304 303 301 300 297 295 295 294 294 294 294 294 294 294 294 294 294 294 294 295 295 295 295 296 295 295 294 294 293 294 296
307 308 310 304 303 306 310 306 304 303 303 302 302 302 301 299 298 296 295 294 294 294 294 293 293 293 293 293 293 294 294 294 294 295 296 296 295 295 294 294 294 294 295 295
309 311 307 303 305 306 304 303 304 303 303 302 302 301 299 298 296 295 294 294 293 294 293 293 294 293 293 294 293 293 294 294 295 295 296 296 296 295 295 294 295 295 295 294
306 307 306 306 305 304 304 303 303 302 302 301 301 299 298 297 295 294 294 293 293 293 293 293 294 293 293 293 293 293 293 294 295 295 296 296 297 296 296 295 295 295 295 295
308 307 306 306 306 305 304 303 302 301 300 300 299 298 297 295 294 294 293 293 292 293 293 293 292 293 293 293 293 293 293 294 294 295 295 296 296 297 297 296 295 296 296 296
309 307 306 305 304 303 302 302 302 301 300 299 299 298 296 295 294 293 293 292 292 292 293 292 292 293 293 293 292 293 293 294 295 295 296 296 296 297 297 297 297 296 296 296
305 304 303 303 302 301 300 301 301 300 300 299 298 297 295 294 293 292 292 292 291 292 291 291 292 293 293 293 292 293 294 295 295 295 296 296 298 298 297 298 297 298 299 299
303 303 302 302 302 302 300 300 300 299 299 299 298 297 294 293 292 292 292 291 290 291 290 292 292 292 293 292 293 294 294 295 294 295 296 298 299 298 297 298 299 302 302 302
302 301 301 301 300 300 299 299 299 299 298 298 298 296 293 292 292 292 291 290 290 290 291 292 292 292 293 292 293 293 294 295 294 296 297 298 300 300 300 300 300 300 301 300
300 300 300 300 300 299 298 298 298 298 298 297 297 294 293 292 291 291 291 290 290 290 291 291 291 292 293 292 293 294 295 295 295 296 297 298 299 300 300 300 300 299 299 299
302 303 299 299 299 299 298 297 297 297 297 297 295 293 293 291 291 291 290 290 289 289 290 291 291 292 292 292 293 294 294 295 296 296 297 297 298 299 299 300 300 299 299 299
303 303 302 299 299 299 299 299 298 297 297 297 294 293 292 291 291 291 290 289 289 289 290 290 292 293 292 292 293 294 294 295 296 296 297 298 298 299 299 299 298 298 299 299
303 303 301 303 300 300 300 299 298 298 298 295 293 292 291 291 291 290 289 289 290 289 289 289 292 292 292 292 293 294 294 295 296 296 296 298 299 298 298 298 298 298 298 299
302 302 302 300 303 301 300 299 298 298 295 294 293 291 291 291 291 290 289 290 289 289 289 288 291 293 292 292 292 293 294 295 296 296 296 297 297 297 297 298 297 298 298 298
301 302 302 301 299 298 299 299 298 295 294 293 292 291 290 290 291 290 290 290 290 289 288 288 290 292 292 291 291 293 293 294 295 295 296 296 297 297 297 296 297 297 297 297
300 301 301 301 299 299 298 298 297 294 294 293 292 291 291 291 291 290 289 290 290 289 288 288 289 291 292 291 291 291 292 293 294 295 295 296 296 296 297 297 297 297 296 296
300 300 300 301 300 298 298 298 296 295 294 293 292 291 291 291 290 290 290 290 290 288 288 288 288 290 291 291 290 291 291 292 293 294 294 295 295 295 295 296 296 296 296 296
300 299 300 300 300 297 297 297 296 295 294 293 292 291 291 291 291 290 290 290 289 288 288 288 288 288 290 290 290 290 290 291 291 292 293 294 294 294 295 295 296 296 295 295
300 299 300 300 300 299 297 297 296 295 294 293 292 291 290 290 290 290 290 290 289 288 288 288 288 288 288 290 290 290 290 290 290 291 291 292 293 294 294 295 295 295 295 295
299 299 300 300 300 299 297 296 296 295 294 293 292 291 290 290 290 290 290 290 288 288 288 288 288 288 287 289 289 290 290 290 289 290 290 290 291 292 292 293 293 294 294 294
299 299 299 299 300 300 300 298 296 295 294 293 293 292 290 290 290 290 290 289 288 287 287 287 288 288 288 287 289 289 289 290 290 289 289 290 290 290 290 291 291 292 292 293

GFSNGP_850_thetae_048.txt.gz
Theta_e
312 312 311 311 311 310 309 310 310 311 311 311 310 308 309 309 309 308 307 307 306 305 304 303 302 300 298 298 297 297 297 297 297 296 296 296 295 295 295 296 295 295 296 296
310 312 310 310 310 310 310 310 310 310 310 310 311 310 309 309 309 308 307 306 305 304 303 302 299 298 298 297 297 297 297 297 296 296 295 294 294 295 295 295 295 296 295 296
314 311 312 312 313 313 311 312 311 310 311 311 309 309 309 309 308 307 306 305 304 303 301 299 298 297 297 297 297 297 296 296 294 294 294 294 295 295 295 295 295 295 296 295
313 311 316 314 311 311 312 310 310 310 310 310 309 309 308 308 308 307 305 304 303 301 299 298 297 296 296 297 296 295 295 294 294 294 294 295 294 294 294 295 294 295 295 295
314 314 314 312 309 309 308 309 310 309 309 309 309 308 308 307 305 304 303 303 301 300 298 297 296 296 296 296 295 295 294 294 294 295 294 294 294 294 294 295 295 295 295 297
312 313 313 313 307 306 307 309 310 309 309 309 308 305 306 307 305 304 303 302 300 298 297 296 296 296 295 295 295 294 294 293 294 293 293 294 294 294 294 295 295 296 296 296
310 313 313 312 307 306 310 311 308 308 308 307 306 307 306 306 305 304 303 301 299 297 296 296 296 295 295 295 295 294 293 293 293 293 294 294 294 295 294 295 296 296 296 296
311 313 312 308 306 308 309 309 308 307 307 306 306 306 306 305 304 303 301 300 298 296 296 295 295 295 295 295 294 293 293 293 293 293 294 294 294 295 296 296 296 296 296 297
313 313 311 309 308 309 307 306 306 306 306 306 305 305 304 304 304 302 300 298 297 296 295 295 294 294 294 293 293 293 293 293 293 294 294 294 295 296 296 296 296 296 297 297
309 310 309 308 307 305 305 305 305 305 305 305 304 304 303 303 302 301 299 297 296 295 295 294 293 293 293 292 293 293 292 293 293 294 294 294 296 297 297 297 298 298 297 297
307 307 307 306 305 305 305 305 305 305 304 304 303 303 303 302 301 300 298 296 295 294 294 293 292 292 292 293 293 292 293 293 294 294 294 295 296 298 298 299 300 302 301 299
307 305 304 304 304 304 304 304 304 303 303 303 303 303 302 301 300 298 296 295 294 294 293 292 292 292 293 292 292 292 292 293 294 294 295 295 297 300 301 299 300 300 300 300
305 304 304 304 304 303 303 303 303 303 302 302 302 302 301 300 298 297 295 294 294 293 292 292 292 292 292 292 292 292 293 294 294 294 295 296 298 299 299 299 300 300 300 300
304 304 303 303 304 304 303 302 302 301 302 301 301 300 299 298 297 296 295 294 293 293 292 292 291 291 291 292 292 292 293 294 294 294 295 297 298 298 299 299 299 299 299 299
305 303 303 304 303 303 302 302 301 301 301 301 300 299 298 297 296 295 294 293 293 292 292 291 291 291 291 292 292 293 293 294 294 295 297 298 298 298 299 299 298 298 298 298
303 303 303 303 303 303 303 302 301 301 301 300 300 299 298 297 295 294 293 293 293 291 291 291 291 291 291 292 292 292 293 294 295 295 296 298 298 298 298 298 297 296 297 297
302 302 303 303 303 303 302 301 300 300 299 299 299 298 297 295 294 293 293 293 292 291 292 292 291 290 291 292 292 292 293 294 295 296 296 297 297 298 298 297 297 296 296 296
302 302 302 303 303 302 301 301 300 300 299 299 298 297 295 294 294 293 292 293 292 292 292 291 291 289 291 292 292 292 293 294 295 295 296 296 297 297 297 297 296 296 296 296
302 301 301 301 302 302 301 300 301 300 300 301 298 296 295 294 293 292 293 292 292 292 292 290 290 289 291 292 292 291 292 293 294 295 295 296 296 296 296 296 296 295 295 296
302 302 301 300 300 301 302 300 300 299 299 298 298 296 294 294 293 292 292 292 292 292 292 289 289 290 290 291 291 291 292 292 293 294 294 295 295 296 296 295 295 295 295 295
302 302 301 300 300 300 301 300 299 299 298 298 298 295 294 294 293 292 292 292 292 291 291 289 289 289 290 291 291 291 291 292 292 293 294 294 295 295 295 295 295 295 295 295
300 300 300 300 300 300 300 300 299 299 298 297 297 295 294 294 293 292 292 292 292 292 291 288 288 289 289 290 291 291 291 291 292 292 293 293 294 294 294 295 295 294 294 294
300 300 300 300 300 300 300 300 299 299 298 297 297 295 294 294 293 292 292 292 292 291 290 288 288 289 288 290 291 290 290 290 291 292 292 293 293 294 294 294 294 294 294 293
300 300 300 300 300 300 300 300 299 299 298 297 296 295 294 294 293 293 292 292 291 291 290 288 288 288 288 289 290 291 290 290 290 290 291 292 293 293 293 293 294 294 293 293
300 300 300 300 300 300 300 299 299 299 298 297 296 295 295 294 294 293 291 291 291 291 289 288 288 288 288 288 289 290 290 290 290 290 290 291 292 292 292 293 293 293 293 293
300 300 300 300 300 299 299 299 299 299 298 297 296 297 295 294 294 293 291 291 291 290 288 288 288 288 288 288 288 289 289 290 290 290 290 290 290 291 291 292 292 292 293 293
300 300 300 300 300 299 299 299 299 298 298 297 297 298 295 294 294 292 291 291 290 290 288 288 288 288 288 288 288 288 289 289 290 289 290 289 289 289 290 290 291 291 292 292